Camp Pendleton, CA

3:42 PM PDT on September 24, 2016 (GMT -0700)
Camp Pendleton Marine Corps Air Station

Weather History for KNFG - December, 2011

Change the Weather History Date:

Sunday, December 25, 2011

  Actual Average Record
Temperature  
Mean Temperature 52 °F -  
Max Temperature 73 °F 65 °F 86 °F (2013)
Min Temperature 30 °F 36 °F 26 °F (1998)
Degree Days  
Heating Degree Days 14    
Growing Degree Days 2 (Base 50)    
Moisture  
Dew Point 26 °F    
Average Humidity 52    
Maximum Humidity 82    
Minimum Humidity 12    
Precipitation  
Precipitation 0.00 in - - ()
Sea Level Pressure  
Sea Level Pressure 30.26 in    
Wind  
Wind Speed 2 mph (ENE)    
Max Wind Speed 8 mph    
Max Gust Speed -    
Visibility 10 miles    
Events      
Averages and records for this station are not official NWS values.
T = Trace of Precipitation, MM = Missing Value Source: NWS Daily Summary

Daily Weather History Graph

Daily Weather History Graph

Search for Another Location

Airport or City:

Trip Planner

Search our weather history database for the weather conditions in past years. The results will help you decide how hot, cold, wet, or windy it might be!

Date:

Astronomy

Dec. 25, 2011 Rise Set
Actual Time 6:50 AM PST 4:48 PM PST
Civil Twilight 6:23 AM PST 5:15 PM PST
Nautical Twilight 5:52 AM PST 5:46 PM PST
Astronomical Twilight 5:22 AM PST 6:16 PM PST
Moon 7:34 AM PST (12/25) 6:10 PM PST (12/25)
Length of Visible Light 10h 52m
Length of Day
9h 57m
New Moon, 2% of the Moon is Illuminated
Dec 25
New Moon
Dec 31
First Quarter
Jan 8
Full
Jan 16
Last Quarter
Jan 22
New

Hourly Weather History & Observations

Time (PST) Temp. Windchill Dew Point Humidity Pressure Visibility Wind Dir Wind Speed Gust Speed Precip Events Conditions
12:54 AM 32.0 °F - 27.0 °F 82% 30.34 in 10.0 mi Calm Calm - N/A   Clear
1:54 AM 32.0 °F - 26.1 °F 79% 30.32 in 10.0 mi Calm Calm - N/A   Clear
2:54 AM 30.9 °F 25.2 °F 26.1 °F 82% 30.32 in 10.0 mi WNW 5.8 mph - N/A   Clear
3:54 AM 32.0 °F - 25.0 °F 75% 30.31 in 10.0 mi Calm Calm - N/A   Clear
4:54 AM 33.1 °F - 25.0 °F 72% 30.31 in 10.0 mi Calm Calm - N/A   Clear
5:54 AM 30.0 °F - 24.1 °F 79% 30.31 in 10.0 mi Calm Calm - N/A   Clear
6:54 AM 30.9 °F 27.5 °F 24.1 °F 76% 30.33 in 10.0 mi NE 3.5 mph - N/A   Clear
7:54 AM 36.0 °F - 27.0 °F 70% 30.34 in 10.0 mi Calm Calm - N/A   Clear
8:54 AM 46.9 °F - 30.0 °F 52% 30.33 in 10.0 mi SE 3.5 mph - N/A   Clear
9:54 AM 64.0 °F - 30.0 °F 28% 30.32 in 10.0 mi ENE 4.6 mph - N/A   Clear
10:54 AM 72.0 °F - 17.1 °F 12% 30.28 in 10.0 mi ENE 8.1 mph - N/A   Clear
11:54 AM 73.9 °F - 18.0 °F 12% 30.24 in 10.0 mi East 5.8 mph - N/A   Clear
12:54 PM 73.0 °F - 28.0 °F 19% 30.21 in 10.0 mi SW 5.8 mph - N/A   Clear
1:54 PM 73.9 °F - 19.0 °F 13% 30.19 in 10.0 mi SW 6.9 mph - N/A   Clear
2:54 PM 73.0 °F - 19.0 °F 13% 30.19 in 10.0 mi WSW 5.8 mph - N/A   Clear
3:54 PM 66.9 °F - 25.0 °F 21% 30.18 in 10.0 mi Calm Calm - N/A   Clear
4:54 PM 61.0 °F - 28.9 °F 30% 30.19 in 10.0 mi Calm Calm - N/A   Clear
5:54 PM 53.1 °F - 30.0 °F 41% 30.20 in 10.0 mi Variable 3.5 mph - N/A   Clear
6:54 PM 50.0 °F - 30.9 °F 48% 30.21 in 10.0 mi NE 6.9 mph - N/A   Clear
7:54 PM 46.0 °F 43.1 °F 30.9 °F 56% 30.21 in 10.0 mi ENE 5.8 mph - N/A   Clear
8:54 PM 43.0 °F - 30.0 °F 60% 30.21 in 10.0 mi Calm Calm - N/A   Clear
9:54 PM 37.9 °F 35.5 °F 28.9 °F 70% 30.22 in 10.0 mi NE 3.5 mph - N/A   Clear
10:54 PM 37.0 °F 34.5 °F 28.9 °F 73% 30.22 in 10.0 mi NE 3.5 mph - N/A   Clear
11:54 PM 34.0 °F - 27.0 °F 75% 30.21 in 10.0 mi Calm Calm - N/A   Clear